GW5240 Weather Reports


Display with metric or nautical units.
time (UTC)temp
F
wind
direction
speed
MPH
gust
MPH
rain 1hr
in
rain 24hr
in
rain mn
in
humidity
%
barometer
mb
20260502170459 60 201 5.0 7.0 0.00 0.00 0.00 34 1017.4
20260502163942 60 334 3.0 5.0 0.00 0.00 0.00 35 1017.6
20260502163438 60 177 3.0 5.0 0.00 0.00 0.00 35 1017.8
20260502162936 60 208 5.0 7.0 0.00 0.00 0.00 33 1017.8
20260502162433 59 190 1.0 2.0 0.00 0.00 0.00 38 1017.9
20260502161930 59 180 5.0 9.0 0.00 0.00 0.00 34 1017.9
20260502161426 59 345 9.0 10.0 0.00 0.00 0.00 35 1018.0
20260502160924 59 208 5.0 9.0 0.00 0.00 0.00 35 1017.9
20260502160422 58 183 4.0 5.0 0.00 0.00 0.00 36 1018.0
20260502151901 57 191 3.0 3.0 0.00 0.00 0.00 39 1018.3
20260502151357 57 180 2.0 3.0 0.00 0.00 0.00 40 1018.5
20260502150855 57 163 3.0 5.0 0.00 0.00 0.00 41 1018.6
20260502150351 56 171 1.0 2.0 0.00 0.00 0.00 39 1018.4
20260502130739 44 180 0.0 0.0 0.00 0.00 0.00 61 1019.2
20260502130237 43 166 0.0 0.0 0.00 0.00 0.00 61 1019.1
20260502123723 41 192 2.0 3.0 0.00 0.00 0.00 66 1019.1
20260502123219 41 179 0.0 0.0 0.00 0.00 0.00 67 1019.1
20260502122716 40 172 1.0 2.0 0.00 0.00 0.00 67 1018.9
20260502122212 40 170 0.0 0.0 0.00 0.00 0.00 68 1019.0
20260502121711 38 171 0.0 0.0 0.00 0.00 0.00 71 1019.1
20260502121208 37 175 0.0 0.0 0.00 0.00 0.00 74 1018.8
20260502120704 37 169 0.0 0.0 0.00 0.00 0.00 76 1018.7
20260502120201 36 175 0.0 0.0 0.00 0.00 0.00 76 1018.9
20260502115659 36 170 0.0 0.0 0.00 0.00 0.00 75 1019.0
20260502115155 36 162 0.0 0.0 0.00 0.00 0.00 75 1018.9
20260502114651 36 165 0.0 0.0 0.00 0.00 0.00 75 1019.0
20260502114149 35 160 0.0 0.0 0.00 0.00 0.00 75 1018.9
20260502113646 35 170 0.0 0.0 0.00 0.00 0.00 75 1018.8
20260502113144 35 169 0.0 0.0 0.00 0.00 0.00 73 1018.6
20260502112642 36 169 0.0 0.0 0.00 0.00 0.00 72 1018.8
20260502112139 36 169 0.0 0.0 0.00 0.00 0.00 73 1018.8
20260502111636 36 179 0.0 0.0 0.00 0.00 0.00 72 1018.7
20260502111134 36 172 0.0 0.0 0.00 0.00 0.00 72 1018.6
20260502110631 36 169 0.0 0.0 0.00 0.00 0.00 72 1018.6
20260502110128 36 175 0.0 0.0 0.00 0.00 0.00 72 1018.8
20260502105626 36 175 0.0 0.0 0.00 0.00 0.00 72 1018.5
20260502105123 36 176 0.0 0.0 0.00 0.00 0.00 71 1018.5
20260502104620 36 177 0.0 0.0 0.00 0.00 0.00 71 1018.7
20260502104117 36 171 0.0 0.0 0.00 0.00 0.00 70 1018.7
20260502103615 36 177 0.0 0.0 0.00 0.00 0.00 70 1018.6
20260502103113 37 174 0.0 0.0 0.00 0.00 0.00 69 1018.7
20260502102609 37 177 0.0 0.0 0.00 0.00 0.00 69 1018.6
20260502102106 37 167 0.0 0.0 0.00 0.00 0.00 69 1018.4
20260502101604 37 176 0.0 0.0 0.00 0.00 0.00 68 1018.5
20260502101102 37 170 0.0 0.0 0.00 0.00 0.00 68 1018.5
20260502100600 37 157 0.0 0.0 0.00 0.00 0.00 68 1018.5
20260502091032 39 180 0.0 0.0 0.00 0.00 0.00 64 1018.4
20260502090529 39 180 0.0 0.0 0.00 0.00 0.00 63 1018.4
20260502071424 41 164 0.0 0.0 0.00 0.00 0.00 61 1018.7
20260502070922 40 182 0.0 0.0 0.00 0.00 0.00 62 1018.8
20260502070420 40 173 0.0 0.0 0.00 0.00 0.00 63 1018.7
20260502065918 40 176 0.0 0.0 0.00 0.00 0.00 63 1018.9
20260502065416 40 172 0.0 0.0 0.00 0.00 0.00 62 1018.6
20260502064914 41 176 0.0 0.0 0.00 0.00 0.00 62 1018.8
20260502064411 41 173 0.0 0.0 0.00 0.00 0.00 62 1018.9
20260502063908 41 180 0.0 0.0 0.00 0.00 0.00 61 1018.9
20260502063406 41 182 0.0 0.0 0.00 0.00 0.00 61 1018.9
20260502062903 41 175 0.0 0.0 0.00 0.00 0.00 60 1019.0
20260502062400 41 173 0.0 0.0 0.00 0.00 0.00 60 1018.9
20260502061859 42 175 0.0 0.0 0.00 0.00 0.00 60 1018.9
20260502061357 42 174 0.0 0.0 0.00 0.00 0.00 59 1018.9
20260502060852 42 177 0.0 0.0 0.00 0.00 0.00 60 1019.0
20260502060347 42 176 0.0 0.0 0.00 0.00 0.00 60 1018.8
20260502055845 41 179 0.0 0.0 0.00 0.00 0.00 60 1019.0
20260502055343 41 184 0.0 0.0 0.00 0.00 0.00 59 1019.1
20260502054842 41 172 0.0 0.0 0.00 0.00 0.00 60 1019.2
20260502054339 41 174 0.0 0.0 0.00 0.00 0.00 59 1019.0
20260502053837 41 173 0.0 0.0 0.00 0.00 0.00 59 1018.9
20260502053334 41 173 0.0 0.0 0.00 0.00 0.00 58 1018.9
20260502052831 41 173 0.0 0.0 0.00 0.00 0.00 57 1019.0
20260502052329 41 173 0.0 0.0 0.00 0.00 0.00 56 1019.0
20260502051827 42 173 0.0 0.0 0.00 0.00 0.00 55 1019.0
20260502051326 42 173 0.0 0.0 0.00 0.00 0.00 55 1019.0
20260502050821 42 178 0.0 0.0 0.00 0.00 0.00 55 1019.0
20260502050318 42 178 0.0 0.0 0.00 0.00 0.00 55 1018.9
20260502045815 42 180 0.0 0.0 0.00 0.00 0.00 54 1019.0
20260502045311 42 173 0.0 0.0 0.00 0.00 0.00 55 1018.8
20260502044809 42 176 0.0 0.0 0.00 0.00 0.00 54 1018.8
20260502044305 42 174 0.0 0.0 0.00 0.00 0.00 54 1018.9
20260502043802 42 177 0.0 0.0 0.00 0.00 0.00 55 1019.0
20260502043300 42 176 0.0 0.0 0.00 0.00 0.00 56 1019.0
20260502042759 42 173 0.0 0.0 0.00 0.00 0.00 55 1019.0
20260502042256 42 174 0.0 0.0 0.00 0.00 0.00 55 1018.9
20260502041754 42 174 0.0 0.0 0.00 0.00 0.00 55 1018.9
20260502041251 42 173 0.0 0.0 0.00 0.00 0.00 55 1019.0
20260502040748 42 175 0.0 0.0 0.00 0.00 0.00 55 1019.1
20260502040245 41 172 0.0 0.0 0.00 0.00 0.00 56 1018.9
20260502035741 41 175 0.0 0.0 0.00 0.00 0.00 56 1019.0
20260502035238 41 174 0.0 0.0 0.00 0.00 0.00 55 1018.9
20260502034735 42 174 0.0 0.0 0.00 0.00 0.00 54 1019.1
20260502034233 42 173 0.0 0.0 0.00 0.00 0.00 54 1018.9
20260502033731 43 173 0.0 0.0 0.00 0.00 0.00 53 1018.9
20260502033229 43 173 0.0 0.0 0.00 0.00 0.00 53 1019.2
20260502032725 43 173 0.0 0.0 0.00 0.00 0.00 52 1019.0
20260502032221 43 173 0.0 0.0 0.00 0.00 0.00 52 1019.0
20260502031720 43 173 0.0 0.0 0.00 0.00 0.00 52 1019.2
20260502031217 43 173 0.0 0.0 0.00 0.00 0.00 51 1019.1
20260502030716 43 175 0.0 0.0 0.00 0.00 0.00 51 1019.0
20260502030214 43 176 0.0 0.0 0.00 0.00 0.00 50 1018.9
20260502025710 43 179 0.0 0.0 0.00 0.00 0.00 50 1019.0
20260502025208 43 179 0.0 0.0 0.00 0.00 0.00 49 1018.9
20260502024706 44 179 0.0 0.0 0.00 0.00 0.00 49 1019.0
20260502024204 44 179 0.0 0.0 0.00 0.00 0.00 48 1019.0
20260502023701 44 179 0.0 0.0 0.00 0.00 0.00 47 1019.0
20260502023158 44 179 0.0 0.0 0.00 0.00 0.00 47 1018.9
20260502022655 44 179 0.0 0.0 0.00 0.00 0.00 46 1019.1
20260502022152 45 179 0.0 0.0 0.00 0.00 0.00 46 1019.1
20260502021650 45 179 0.0 0.0 0.00 0.00 0.00 45 1019.0
20260502021147 46 179 0.0 0.0 0.00 0.00 0.00 43 1019.1
20260502020644 46 179 0.0 0.0 0.00 0.00 0.00 43 1018.9
20260502020140 47 179 0.0 0.0 0.00 0.00 0.00 42 1018.7
20260502015639 47 179 0.0 0.0 0.00 0.00 0.00 41 1018.7
20260502015134 48 179 0.0 0.0 0.00 0.00 0.00 40 1018.6
20260502014632 48 179 0.0 0.0 0.00 0.00 0.00 40 1018.6
20260502014129 49 185 0.0 0.0 0.00 0.00 0.00 39 1018.4
20260502013625 49 177 0.0 0.0 0.00 0.00 0.00 37 1018.4
20260502013121 50 186 0.0 0.0 0.00 0.00 0.00 37 1018.4
20260502012618 50 182 0.0 0.0 0.00 0.00 0.00 36 1018.5
20260502012116 50 162 0.0 0.0 0.00 0.00 0.00 35 1018.4
20260502011613 51 177 0.0 0.0 0.00 0.00 0.00 35 1018.4
20260502011108 51 175 0.0 0.0 0.00 0.00 0.00 33 1018.5
20260502010606 52 303 2.0 2.0 0.00 0.00 0.00 33 1018.4
20260502005600 52 218 1.0 2.0 0.00 0.00 0.00 34 1018.5
20260502005058 52 189 3.0 3.0 0.00 0.00 0.00 33 1018.3
20260502004553 53 164 0.0 0.0 0.00 0.00 0.00 33 1018.3
20260502004050 53 157 0.0 2.0 0.00 0.00 0.00 33 1018.4
20260502003548 53 308 8.0 10.0 0.00 0.00 0.00 32 1018.6
20260502003045 54 324 2.0 3.0 0.00 0.00 0.00 32 1018.4
20260502002541 54 182 0.0 0.0 0.00 0.00 0.00 31 1018.4
20260502002038 53 27 2.0 3.0 0.00 0.00 0.00 33 1018.5
20260502001536 53 178 1.0 2.0 0.00 0.00 0.00 33 1018.3
20260502001033 53 171 1.0 2.0 0.00 0.00 0.00 33 1018.1
20260502000532 53 129 0.0 0.0 0.00 0.00 0.00 34 1018.3
20260502000028 53 359 2.0 3.0 0.00 0.00 0.00 33 1018.1
20260501235524 53 265 4.0 5.0 0.00 0.00 0.00 33 1018.5
20260501235020 53 14 1.0 2.0 0.00 0.00 0.00 34 1018.3
20260501234516 53 134 2.0 2.0 0.00 0.00 0.00 33 1018.5
20260501234014 53 179 2.0 3.0 0.00 0.00 0.00 32 1018.4
20260501233512 54 181 2.0 3.0 0.00 0.00 0.00 32 1018.0
20260501233008 55 211 2.0 3.0 0.00 0.00 0.00 31 1018.3
20260501232505 55 117 2.0 3.0 0.00 0.00 0.00 32 1018.2
20260501232002 55 176 1.0 2.0 0.00 0.00 0.00 31 1018.1
20260501231500 56 173 2.0 3.0 0.00 0.00 0.00 31 1018.2
20260501230958 56 176 3.0 3.0 0.00 0.00 0.00 31 1018.3
20260501230457 55 187 2.0 2.0 0.00 0.00 0.00 34 1018.2
20260501225954 55 141 2.0 3.0 0.00 0.00 0.00 31 1018.4
20260501225451 55 260 3.0 3.0 0.00 0.00 0.00 32 1018.2
20260501224947 56 226 2.0 3.0 0.00 0.00 0.00 33 1018.3
20260501224445 56 42 6.0 9.0 0.00 0.00 0.00 31 1018.2
20260501223942 56 237 2.0 2.0 0.00 0.00 0.00 29 1018.4
20260501223438 57 236 2.0 2.0 0.00 0.00 0.00 32 1018.2
20260501222933 56 189 2.0 2.0 0.00 0.00 0.00 34 1018.2
20260501222431 55 111 2.0 2.0 0.00 0.00 0.00 34 1018.4
20260501221927 54 4 2.0 3.0 0.00 0.00 0.00 31 1018.4
20260501221424 54 271 0.0 2.0 0.00 0.00 0.00 33 1018.4
20260501220922 54 161 0.0 2.0 0.00 0.00 0.00 33 1018.3
20260501220420 54 130 2.0 3.0 0.00 0.00 0.00 33 1018.3
20260501215915 54 206 2.0 3.0 0.00 0.00 0.00 32 1018.3
20260501215412 56 323 5.0 7.0 0.00 0.00 0.00 31 1018.5
20260501214908 56 292 2.0 3.0 0.00 0.00 0.00 32 1018.4
20260501214403 57 170 4.0 7.0 0.00 0.00 0.00 32 1018.4
20260501213859 57 267 2.0 2.0 0.00 0.00 0.00 30 1018.4
20260501213355 55 204 0.0 0.0 0.00 0.00 0.00 32 1018.3
20260501212851 53 173 2.0 3.0 0.00 0.00 0.00 31 1018.5
20260501212348 54 168 2.0 3.0 0.00 0.00 0.00 34 1018.5
20260501211845 54 194 1.0 2.0 0.00 0.00 0.00 31 1018.6
20260501211343 52 91 3.0 3.0 0.00 0.00 0.00 35 1018.5
20260501210840 52 154 2.0 3.0 0.00 0.00 0.00 36 1018.6
20260501210337 52 64 4.0 5.0 0.00 0.00 0.00 35 1018.6
20260501205833 53 136 2.0 2.0 0.00 0.00 0.00 35 1018.7
20260501205330 53 71 4.0 7.0 0.00 0.00 0.00 33 1018.7
20260501204827 54 170 1.0 2.0 0.00 0.00 0.00 34 1018.7
20260501204324 54 355 2.0 3.0 0.00 0.00 0.00 33 1018.6
20260501203820 53 253 3.0 5.0 0.00 0.00 0.00 37 1018.7
20260501203317 52 81 4.0 7.0 0.00 0.00 0.00 34 1018.8
20260501202814 53 126 0.0 0.0 0.00 0.00 0.00 35 1018.7
20260501202310 54 240 2.0 3.0 0.00 0.00 0.00 32 1018.8
20260501201808 56 50 4.0 5.0 0.00 0.00 0.00 35 1018.9
20260501201304 56 187 4.0 7.0 0.00 0.00 0.00 33 1018.8
20260501200800 55 130 2.0 3.0 0.00 0.00 0.00 38 1018.9
20260501200258 57 312 4.0 5.0 0.00 0.00 0.00 31 1018.8
20260501195755 56 176 2.0 2.0 0.00 0.00 0.00 32 1018.9
20260501195251 55 65 3.0 3.0 0.00 0.00 0.00 34 1019.0
20260501194747 54 322 3.0 3.0 0.00 0.00 0.00 33 1018.9
20260501194243 53 23 4.0 7.0 0.00 0.00 0.00 34 1019.1
20260501193740 55 21 6.0 7.0 0.00 0.00 0.00 33 1019.1
20260501193238 54 83 3.0 3.0 0.00 0.00 0.00 34 1019.0
20260501192735 52 98 4.0 5.0 0.00 0.00 0.00 35 1019.0
20260501192232 55 91 9.0 10.0 0.00 0.00 0.00 32 1019.0
20260501191730 56 345 4.0 7.0 0.00 0.00 0.00 34 1019.1
20260501191227 55 167 1.0 2.0 0.00 0.00 0.00 37 1019.0
20260501190723 53 109 3.0 5.0 0.00 0.00 0.00 37 1019.1
20260501190219 53 117 5.0 7.0 0.00 0.00 0.00 35 1019.2
20260501185715 54 185 2.0 5.0 0.00 0.00 0.00 37 1019.2
20260501185211 54 112 3.0 5.0 0.00 0.00 0.00 39 1019.1
20260501184707 54 344 2.0 3.0 0.00 0.00 0.00 37 1018.9
20260501184202 53 164 1.0 2.0 0.00 0.00 0.00 36 1019.0
20260501183659 53 284 2.0 7.0 0.00 0.00 0.00 36 1019.1
20260501183155 53 174 5.0 7.0 0.00 0.00 0.00 36 1019.1
20260501182652 53 217 4.0 7.0 0.00 0.00 0.00 35 1019.1
20260501182148 52 33 2.0 5.0 0.00 0.00 0.00 36 1019.3
20260501181646 51 207 2.0 3.0 0.00 0.00 0.00 38 1019.2
20260501181142 53 158 4.0 5.0 0.00 0.00 0.00 35 1019.2
20260501180641 55 100 7.0 10.0 0.00 0.00 0.00 34 1019.3
20260501180137 54 138 2.0 2.0 0.00 0.00 0.00 39 1019.1
20260501175633 53 36 2.0 3.0 0.00 0.00 0.00 38 1019.2
20260501175131 54 204 5.0 5.0 0.00 0.00 0.00 36 1019.3
20260501174627 52 145 2.0 2.0 0.00 0.00 0.00 40 1019.2
20260501174125 50 117 3.0 5.0 0.00 0.00 0.00 40 1019.3
20260501173622 51 3 2.0 3.0 0.00 0.00 0.00 37 1019.4
20260501173119 51 179 4.0 5.0 0.00 0.00 0.00 37 1019.4
20260501172615 53 309 2.0 3.0 0.00 0.00 0.00 33 1019.4
20260501172110 51 121 2.0 2.0 0.00 0.00 0.00 40 1019.4
20260501171606 49 79 2.0 5.0 0.00 0.00 0.00 36 1019.4